TimePDT,TemperatureF,Dew PointF,Humidity,Sea Level PressureIn,VisibilityMPH,Wind Direction,Wind SpeedMPH,Gust SpeedMPH,PrecipitationIn,Events,Conditions,WindDirDegrees,DateUTC
12:56 AM,55.0,48.9,80,29.92,10.0,Calm,Calm,-,N/A,,Clear,0,2013-04-24 07:56:00
1:56 AM,54.0,48.0,80,29.91,10.0,Calm,Calm,-,N/A,,Clear,0,2013-04-24 08:56:00
2:48 AM,53.6,48.2,82,29.89,10.0,Calm,Calm,-,N/A,,Mostly Cloudy,0,2013-04-24 09:48:00
2:56 AM,54.0,48.0,80,29.89,10.0,Calm,Calm,-,N/A,,Mostly Cloudy,0,2013-04-24 09:56:00
3:56 AM,54.0,48.9,83,29.88,9.0,Calm,Calm,-,N/A,,Overcast,0,2013-04-24 10:56:00
4:56 AM,54.0,48.0,80,29.87,10.0,Calm,Calm,-,N/A,,Mostly Cloudy,0,2013-04-24 11:56:00
5:56 AM,54.0,48.9,83,29.88,10.0,West,3.5,-,N/A,,Overcast,260,2013-04-24 12:56:00
6:56 AM,54.0,48.9,83,29.88,7.0,North,4.6,-,N/A,,Overcast,360,2013-04-24 13:56:00
7:56 AM,54.0,48.9,83,29.90,7.0,Calm,Calm,-,N/A,,Overcast,0,2013-04-24 14:56:00
8:56 AM,57.0,50.0,77,29.91,6.0,Calm,Calm,-,N/A,,Haze,0,2013-04-24 15:56:00
9:56 AM,61.0,50.0,67,29.91,7.0,Calm,Calm,-,N/A,,Clear,0,2013-04-24 16:56:00
10:56 AM,62.1,51.1,67,29.91,7.0,Variable,4.6,-,N/A,,Clear,0,2013-04-24 17:56:00
11:56 AM,64.0,51.1,63,29.91,8.0,NNW,9.2,-,N/A,,Clear,340,2013-04-24 18:56:00
12:56 PM,64.0,50.0,60,29.91,10.0,NNW,11.5,-,N/A,,Clear,340,2013-04-24 19:56:00
1:56 PM,64.9,50.0,58,29.90,10.0,NNW,13.8,-,N/A,,Clear,340,2013-04-24 20:56:00
2:56 PM,66.0,50.0,56,29.89,10.0,NNW,11.5,-,N/A,,Clear,330,2013-04-24 21:56:00
3:56 PM,66.0,51.1,59,29.88,10.0,North,15.0,-,N/A,,Clear,350,2013-04-24 22:56:00
4:56 PM,66.0,51.1,59,29.88,10.0,NNW,16.1,-,N/A,,Clear,340,2013-04-24 23:56:00
5:56 PM,64.9,50.0,58,29.89,10.0,North,15.0,-,N/A,,Clear,350,2013-04-25 00:56:00
6:56 PM,63.0,48.9,60,29.90,10.0,North,13.8,-,N/A,,Clear,360,2013-04-25 01:56:00
7:56 PM,60.1,51.1,72,29.91,10.0,North,10.4,-,N/A,,Clear,360,2013-04-25 02:56:00
8:56 PM,59.0,51.1,75,29.93,10.0,NNE,8.1,-,N/A,,Clear,20,2013-04-25 03:56:00
9:56 PM,57.9,48.9,72,29.96,10.0,NNW,4.6,-,N/A,,Clear,340,2013-04-25 04:56:00
10:56 PM,57.0,50.0,77,29.98,10.0,NNE,9.2,-,N/A,,Clear,30,2013-04-25 05:56:00
11:56 PM,55.0,50.0,83,29.98,10.0,East,4.6,-,N/A,,Clear,100,2013-04-25 06:56:00